Showing default

OPS 0100 (TRANSIT 15), 2754

Orbit data source: Space-Track

OPS 0100 (TRANSIT 15), 2754 is a payload satellite owned by USN NAVAIR (US) in LEO that was launched on Fri, 14 Apr 1967 UTC via an SCOUT A launch vehicle from the Air Force Western Test Range (AFWTR). Payload-class satellites include a variety of spacecraft equipped with specific instruments for various scientific and technological missions. These include communications satellites like Starlink; space stations such as the ISS; scientific satellites like the Hubble; Earth observation satellites from companies like Planet Labs, Umbra, and HawkEye 360; GPS; miniature CubeSats for education and research; and military/defense satellites.

Loading next visibility...
Identifier
2754, 1967-034A
Orbit
LEO
Country
Flag of USUS
Related business
Manufacturer
APL
Mission
Spacecraft
Bus & Motor
TRANSIT 5, Unknown motor
Mass
~50 kg wet, ~50 kg dry
Launch date (UTC)
1967-04-14 (59 years ago)
Launch vehicle
SCOUT A
Launch site
Air Force Western Test Range (AFWTR)
Object type
Payload
Rocket body
Debris
Shape & HBR
Unknown
Radar Cross Section
Large (>1 m²)

Expand to show TLE details & history
Last TLE update: 17 hours ago

TLE from 17 hours ago
0 OPS 0100 (TRANSIT 15)
1 02754U 67034A   26034.55853846  .00000137  00000-0  17923-3 0  9993
2 02754  90.2261  31.9909 0019666 171.6212 313.0259 13.57372717907988
Epoch: 2026-02-03T13:24Z
TLE epoch observation values (Epoch: 2026-02-03T13:24:17.722Z)
Latitude
55.61145°
Longitude
-122.49203°
Altitude
1,044.629 km
Speed
7.34 km/s
True Right ascension
14h 09m 16s
True Declination
55° 27' 26"
Sunlit
Object was in daylight at epoch
Visualization orbit readout
Latitude
Unknown
Longitude
Unknown
Altitude
Unknown
Speed
Unknown
Apparent Right ascension
Unknown
Apparent Declination
Unknown
Sunlit
N/A
Visualization observer readout
Local Sidereal Time
08:08:09
Azimuth
Unknown
Elevation
Unknown
Doppler factor
Unknown
Orbital elements
Apogee altitude
1,056.888 km
Perigee altitude
1,027.702 km
Semi-major axis
7,420.432 km
Eccentricity
0.00197
Inclination
90.2261°
RAAN
31.9909°
Arg. of periapsis
171.6212°
True anomaly
312.86088°
Mean anomaly
313.0259°
Eccentric anomaly
312.94342°
Mean motion
3.39547 °/min
Orbital period
106.02 mins
BSTAR
0.00017923
Loading maneuver chart data...
Computing Atmospheric mass density...
Loading historical data...
Loading historical data...
Loading historical data...
Loading historical data...
Loading historical data...
Loading historical data...
Loading historical data...

Documentation

Showing up to 5 results
|